SCP
0 0 0 0 0 0 0 1 1 1 4 7 4 5 4 4 2 2 1 1 3 3 5 3 2 3 2 1 1 0 1 0 0 1 3 2 3 3 4 5 4 3 2
0 0 0 0 0 0 0 0 2 2 1 6 7 3 7 9 1 0 0 1 2 3 3 2 1 1 2 1 1 1 0 0 1 2 4 4 2 3 5 5 3 3 2
0 0 0 0 0 0 0 0 0 1 2 1 1 4 7 13 5 1 1 1 0 1 3 3 1 2 1 1 2 1 1 0 1 1 4 5 3 6 6 4 3 2 3
0 0 0 0 0 0 0 0 0 0 0 1 1 2 1 2 1 0 2 1 0 1 2 2 2 3 -0 2 3 2 0 2 3 2 1 3 6 5 5 4 3 2 3
0 0 0 0 0 0 0 0 0 0 1 0 1 1 2 1 1 3 4 1 4 2 2 3 2 1 1 1 2 1 2 2 4 2 -0 3 5 4 4 3 2 4 2
0 0 0 0 0 0 0 0 0 1 1 1 1 1 1 2 1 2 4 4 3 4 4 3 4 4 4 3 3 3 6 4 3 1 0 6 9 5 5 3 2 2 3
0 0 0 0 0 0 0 0 0 0 0 0 1 2 2 1 1 1 1 1 1 3 4 6 2 2 2 2 1 2 3 5 4 1 2 3 6 5 4 3 2 3 3
0 0 0 0 0 0 0 0 0 0 0 0 0 1 1 1 1 0 0 0 0 0 1 4 3 3 3 4 5 3 3 5 5 4 5 4 4 4 3 4 4 4 2
0 0 0 0 0 0 0 0 0 0 0 0 0 1 1 2 1 1 1 0 1 1 1 1 2 6 5 6 5 5 5 5 6 8 7 6 3 4 4 4 3 3 2
0 0 0 0 0 0 0 0 0 0 0 0 0 0 0 1 1 1 1 1 1 1 2 2 3 12 6 5 5 6 6 5 6 7 4 4 5 4 4 4 3 2 1
0 0 0 0 0 0 0 0 0 0 0 0 0 0 0 0 1 1 1 1 1 2 1 2 2 2 4 6 5 5 6 5 5 4 3 4 5 3 4 4 3 2 1
0 0 0 0 0 0 0 0 0 0 0 0 0 0 0 0 0 0 0 1 1 1 1 1 2 2 3 4 3 3 4 4 4 3 3 3 3 2 3 3 2 1 1
0 0 0 0 0 0 0 0 0 0 0 0 0 0 0 1 1 0 0 0 0 1 1 1 1 2 2 2 3 2 3 3 2 2 3 3 3 3 3 4 2 1 1
0 0 0 0 0 0 0 0 0 0 0 0 0 0 0 0 0 0 0 0 0 0 0 0 1 1 1 1 2 3 4 3 3 3 2 2 3 3 3 3 1 2 1
-0 0 0 0 0 0 0 0 0 0 0 0 0 0 0 0 0 0 0 0 0 0 0 0 0 1 1 1 1 3 4 3 3 2 2 4 3 2 3 2 1 1 1
0 0 0 0 0 0 0 0 0 0 0 0 0 0 0 0 0 0 0 0 0 0 0 0 0 1 1 1 1 3 3 2 2 2 4 3 1 1 1 0 0 1 1
0 0 0 0 0 0 0 0 0 0 0 0 0 0 0 0 0 0 0 0 0 0 0 0 0 1 1 1 0 2 3 2 2 4 4 2 2 0 0 0 0 0 0
0 0 0 0 0 0 0 0 0 0 0 0 0 0 0 0 0 0 0 0 0 0 0 0 1 1 1 0 0 1 3 3 4 3 2 2 1 1 1 0 1 1 0
0 0 0 0 0 0 0 0 0 0 0 0 0 0 0 0 0 0 0 0 0 0 0 0 0 1 1 0 0 3 3 3 3 3 2 1 1 0 0 1 0 0 0
0 0 0 0 0 0 0 0 0 0 0 0 0 0 0 0 0 0 0 0 0 0 0 0 0 1 1 0 0 4 4 3 3 2 0 0 0 0 0 1 1 1 0
0 0 0 0 0 0 0 0 0 0 0 0 0 0 0 0 0 0 0 0 0 -0 0 0 1 1 1 0 0 2 2 2 2 1 1 0 0 0 0 0 1 0 0
0 0 0 0 0 0 0 0 0 0 0 0 0 0 -0 -0 -0 0 0 0 0 -0 0 0 1 2 1 0 0 0 1 1 1 1 0 0 0 0 0 0 0 0 0
-0 0 0 0 0 0 0 0 0 0 0 0 0 -0 0 0 -0 -0 0 0 0 0 0 0 1 2 0 0 0 0 0 1 1 0 0 0 0 0 0 0 0 0 0
0 0 -0 0 0 0 -0 -0 -0 0 -0 -0 0 0 0 0 0 0 0 0 0 0 0 1 2 1 0 0 0 0 0 0 0 0 0 0 0 0 0 0 0 0 0
0 -0 -0 -0 -0 -0 -0 -0 -0 -0 -0 0 0 -0 -0 0 0 0 -0 0 0 -0 1 1 1 1 0 0 0 0 0 0 0 0 0 0 0 0 0 0 0 0 0
-0 -0 -0 -0 0 0 0 -0 -0 -0 0 0 -0 0 0 0 -0 0 -0 0 0 1 1 1 1 0 0 0 0 0 0 0 0 0 0 0 0 0 0 0 0 0 0
Wind_Speed_500mb
42 42 41 37 25 19 25 24 27 35 58 49 57 73 65 43 48 68 73 66 61 67 66 54 41 55 58 65 62 55 59 52 48 36 53 48 45 41 45 48 47 41 43
42 40 26 39 22 22 29 27 23 26 25 52 58 66 79 63 59 41 56 59 68 78 63 55 43 52 57 66 60 60 55 59 46 59 46 32 39 37 40 44 46 36 40
52 49 56 26 29 19 30 29 32 25 34 26 32 67 74 73 84 63 48 52 53 85 76 81 89 54 59 74 61 57 57 73 54 78 62 19 20 22 17 29 35 31 35
46 48 34 29 22 25 24 19 34 36 26 58 29 32 35 80 89 97 75 68 68 71 75 80 68 67 88 60 65 64 58 66 73 61 79 61 49 27 15 17 25 27 37
20 28 25 26 27 22 22 19 19 17 20 34 71 36 40 36 46 35 92 70 68 75 77 81 80 82 83 93 92 84 92 58 55 63 82 67 51 34 34 43 25 22 28
19 18 31 33 26 30 27 21 23 14 18 22 36 71 51 43 42 48 39 61 63 62 74 70 82 91 96 93 95 97 90 61 57 86 72 67 58 43 32 39 42 39 39
23 36 31 31 42 32 27 21 17 12 15 17 23 28 45 41 38 46 56 54 50 52 54 53 61 62 69 77 80 89 78 72 84 100 83 75 50 41 36 35 38 38 30
28 22 26 13 13 18 18 26 15 16 16 18 20 22 25 35 43 47 35 42 50 61 60 51 49 61 69 65 71 90 76 67 81 82 71 76 60 49 52 42 40 23 24
24 11 7 17 17 15 16 13 21 24 18 17 19 23 24 28 33 43 45 47 51 54 64 59 56 51 56 69 62 63 67 75 79 86 78 74 55 47 47 52 55 43 37
25 19 23 27 24 24 22 27 34 33 29 26 24 25 24 23 28 33 38 44 53 61 62 61 53 43 57 56 60 64 71 70 78 86 78 65 54 51 51 54 52 38 44
17 28 28 25 24 25 29 27 25 26 32 32 28 29 29 31 33 36 34 40 48 52 56 63 66 54 62 68 69 71 75 73 79 82 71 57 46 47 47 48 47 38 36
34 29 21 25 27 26 27 26 30 28 34 37 34 36 32 35 39 43 48 45 45 51 51 56 63 60 64 74 64 74 80 77 78 75 66 53 41 45 44 43 41 36 30
42 31 26 23 20 24 27 27 30 32 37 28 31 38 40 37 38 44 47 53 58 55 53 50 60 59 61 68 69 63 72 77 74 66 61 54 47 46 52 49 42 39 29
52 35 28 27 27 28 30 29 33 32 37 38 41 43 43 48 58 59 60 58 55 59 61 58 55 61 66 65 71 73 75 71 68 60 51 52 51 50 48 48 46 36 38
93 62 28 22 29 32 33 36 37 38 39 40 44 47 50 55 59 62 63 65 62 57 60 64 60 63 67 71 71 73 76 59 66 58 57 54 46 45 51 43 49 44 38
43 26 24 14 28 31 32 33 33 32 38 48 54 53 59 62 65 66 69 70 69 66 70 73 67 60 67 70 71 75 66 61 62 59 60 46 46 47 47 39 39 35 38
24 21 77 33 24 26 36 42 45 50 54 57 57 59 65 72 76 76 73 75 75 66 70 70 68 62 73 66 68 75 67 61 62 64 56 50 45 50 46 44 43 40 39
36 46 38 38 41 46 49 51 51 55 57 60 62 65 68 74 78 79 81 78 73 72 72 75 71 69 75 62 69 75 67 61 65 52 48 49 42 37 41 45 45 42 42
47 49 54 59 60 58 55 63 67 68 69 75 79 84 85 85 79 77 82 82 73 74 77 79 75 70 72 65 72 75 69 57 49 47 51 44 38 35 30 28 26 24 36
61 59 58 63 62 64 67 67 67 70 69 69 70 70 77 85 82 82 82 81 76 75 75 84 79 71 67 64 73 82 62 51 47 50 44 37 36 32 30 36 31 32 35
74 75 74 70 73 66 59 63 65 69 78 85 81 81 76 79 89 72 79 74 70 71 79 79 68 69 68 72 73 69 57 55 52 51 48 48 40 38 29 29 39 32 33
83 79 77 74 72 67 66 72 70 85 78 72 70 71 73 76 80 75 67 77 83 83 84 72 68 65 71 72 75 67 60 48 58 49 43 39 35 37 26 27 35 24 28
81 74 73 75 69 65 63 63 72 77 67 64 66 67 69 74 69 78 76 77 79 76 73 67 67 68 74 76 70 69 58 56 51 40 32 24 21 20 24 23 26 28 25
75 72 67 63 61 56 60 66 69 65 63 63 65 60 64 68 71 72 70 72 75 74 70 61 69 80 78 85 89 64 62 58 45 41 33 25 19 24 21 17 16 22 24
72 65 64 69 71 63 61 65 63 59 68 67 60 63 59 66 73 67 69 71 76 70 64 72 80 71 86 98 88 72 65 59 48 40 35 24 31 32 26 21 21 25 26
67 65 63 70 75 64 62 67 69 59 58 61 64 62 57 59 64 66 58 70 60 63 73 81 72 68 82 90 79 63 53 47 43 40 37 33 35 33 33 28 22 18 18
Wind_Direction_500mb
245 254 197 193 190 216 236 218 216 209 211 220 232 230 235 250 258 243 230 228 229 244 251 254 255 246 256 255 267 267 265 253 262 264 271 274 273 287 286 281 271 277 269
232 237 197 192 201 230 234 230 211 217 222 218 223 230 232 234 255 259 241 241 233 242 244 253 273 263 268 270 270 265 259 258 271 267 270 266 277 274 281 279 270 272 263
218 224 228 209 209 224 253 239 235 218 212 221 230 238 234 232 236 252 276 269 255 243 251 263 269 273 282 274 269 265 265 260 264 269 247 242 244 253 304 279 254 264 252
237 211 201 223 222 227 235 242 252 247 228 234 219 219 234 230 236 244 256 271 274 255 249 246 254 255 271 266 261 265 277 270 264 264 260 256 254 271 301 252 254 254 242
209 215 199 216 228 221 225 232 250 242 229 224 230 245 239 242 231 240 230 259 254 263 254 252 253 260 254 267 265 274 273 267 263 261 263 252 251 256 256 271 276 247 259
187 215 199 198 209 234 230 236 240 221 237 230 236 231 244 233 231 222 219 227 238 251 254 252 249 242 252 258 270 264 256 260 255 268 246 244 239 251 246 257 263 260 263
209 182 200 206 209 205 216 242 260 250 264 254 240 226 223 242 245 239 230 234 228 232 251 254 255 258 260 262 261 251 262 245 248 246 252 235 233 241 246 257 262 254 250
208 189 218 202 219 214 231 211 219 266 268 266 256 267 259 254 256 262 260 255 250 245 242 261 259 260 261 258 259 257 257 250 244 247 244 243 233 234 240 243 249 248 249
209 185 206 233 231 242 236 243 234 238 250 263 276 275 267 263 264 259 251 249 251 250 247 242 247 258 254 251 262 263 257 250 249 252 249 241 240 230 240 236 244 250 256
197 207 239 252 253 246 240 234 243 245 236 251 260 273 278 268 270 282 283 273 261 253 255 251 250 260 259 245 251 261 252 250 246 249 247 236 241 225 236 241 246 244 247
208 235 255 268 267 254 247 249 242 248 256 251 247 256 261 263 258 260 268 272 274 268 262 257 252 245 253 255 257 247 246 244 243 245 239 238 238 215 234 240 242 239 217
237 239 237 250 268 268 268 263 264 260 269 266 260 262 262 265 266 265 263 263 263 266 262 266 263 258 247 256 252 244 241 236 237 237 235 236 237 219 227 235 234 236 220
244 242 242 235 253 274 277 268 274 276 276 275 269 275 276 275 270 268 268 266 265 265 268 255 263 255 250 241 248 244 238 234 238 235 230 224 231 227 223 227 223 214 218
286 247 223 231 234 248 258 274 283 280 277 276 272 273 275 275 269 268 272 276 272 270 268 256 257 259 249 246 237 239 240 237 228 231 227 221 226 227 230 231 216 212 229
275 246 216 251 244 249 250 257 258 260 268 277 279 280 280 281 283 282 277 276 276 270 265 266 249 257 248 244 235 233 236 233 216 221 224 224 228 226 232 231 217 219 220
301 311 259 234 271 281 281 281 288 280 270 269 270 282 282 283 283 279 275 274 272 269 268 264 254 256 248 244 238 230 229 213 217 214 215 220 219 217 225 224 215 221 219
274 310 287 299 300 304 296 298 295 290 281 276 274 274 277 276 278 279 273 269 269 269 268 264 261 248 244 245 233 225 221 211 208 213 217 218 221 225 228 213 217 229 233
305 324 323 310 304 302 294 289 287 283 280 277 274 273 275 275 269 270 268 266 264 265 265 261 263 248 240 240 224 219 209 207 209 218 219 216 219 220 218 224 230 232 236
311 306 300 300 298 293 290 284 281 281 278 275 273 272 273 265 266 264 260 263 259 260 260 263 265 247 239 233 218 214 205 202 207 211 216 215 203 209 220 217 227 227 234
305 296 294 290 284 284 282 283 280 277 272 271 268 264 262 261 260 263 256 258 257 256 256 266 262 244 238 222 213 207 195 193 196 206 201 197 206 213 211 210 219 226 240
299 294 288 284 284 280 277 278 274 269 270 271 271 270 263 258 254 267 252 253 253 259 259 264 249 239 226 211 205 206 190 195 192 191 193 197 206 214 225 214 222 227 232
295 292 289 284 283 283 282 279 267 275 280 279 271 266 262 259 259 258 255 253 252 258 259 252 241 228 215 206 202 196 185 191 182 193 203 213 219 233 219 215 219 220 226
288 289 286 284 282 278 275 269 270 281 281 277 269 264 258 254 241 248 254 253 250 251 253 240 223 202 201 191 191 176 178 181 188 197 196 200 209 218 208 215 224 228 224
286 284 281 277 278 276 272 272 275 282 282 272 268 265 262 256 249 254 253 250 248 254 234 223 194 192 188 180 171 173 168 174 169 172 184 196 207 187 187 197 203 190 209
284 282 281 281 279 280 278 276 278 274 275 267 265 260 257 256 254 259 258 246 253 227 217 199 187 192 180 172 176 171 168 174 178 185 191 198 180 175 169 163 143 161 170
286 281 276 278 280 279 275 273 274 273 270 266 262 256 256 253 258 259 246 232 219 199 197 192 185 171 170 175 175 176 179 187 194 192 190 179 179 182 177 169 162 177 181
Wind_Speed_850mb
42 42 41 37 25 19 25 24 27 35 58 49 57 73 65 43 48 68 73 66 61 67 66 54 41 55 58 65 62 55 59 52 48 36 53 48 45 41 45 48 47 41 43
42 40 26 39 22 22 29 27 23 26 25 52 58 66 79 63 59 41 56 59 68 78 63 55 43 52 57 66 60 60 55 59 46 59 46 32 39 37 40 44 46 36 40
52 49 56 26 29 19 30 29 32 25 34 26 32 67 74 73 84 63 48 52 53 85 76 81 89 54 59 74 61 57 57 73 54 78 62 19 20 22 17 29 35 31 35
46 48 34 29 22 25 24 19 34 36 26 58 29 32 35 80 89 97 75 68 68 71 75 80 68 67 88 60 65 64 58 66 73 61 79 61 49 27 15 17 25 27 37
20 28 25 26 27 22 22 19 19 17 20 34 71 36 40 36 46 35 92 70 68 75 77 81 80 82 83 93 92 84 92 58 55 63 82 67 51 34 34 43 25 22 28
19 18 31 33 26 30 27 21 23 14 18 22 36 71 51 43 42 48 39 61 63 62 74 70 82 91 96 93 95 97 90 61 57 86 72 67 58 43 32 39 42 39 39
23 36 31 31 42 32 27 21 17 12 15 17 23 28 45 41 38 46 56 54 50 52 54 53 61 62 69 77 80 89 78 72 84 100 83 75 50 41 36 35 38 38 30
28 22 26 13 13 18 18 26 15 16 16 18 20 22 25 35 43 47 35 42 50 61 60 51 49 61 69 65 71 90 76 67 81 82 71 76 60 49 52 42 40 23 24
24 11 7 17 17 15 16 13 21 24 18 17 19 23 24 28 33 43 45 47 51 54 64 59 56 51 56 69 62 63 67 75 79 86 78 74 55 47 47 52 55 43 37
25 19 23 27 24 24 22 27 34 33 29 26 24 25 24 23 28 33 38 44 53 61 62 61 53 43 57 56 60 64 71 70 78 86 78 65 54 51 51 54 52 38 44
17 28 28 25 24 25 29 27 25 26 32 32 28 29 29 31 33 36 34 40 48 52 56 63 66 54 62 68 69 71 75 73 79 82 71 57 46 47 47 48 47 38 36
34 29 21 25 27 26 27 26 30 28 34 37 34 36 32 35 39 43 48 45 45 51 51 56 63 60 64 74 64 74 80 77 78 75 66 53 41 45 44 43 41 36 30
42 31 26 23 20 24 27 27 30 32 37 28 31 38 40 37 38 44 47 53 58 55 53 50 60 59 61 68 69 63 72 77 74 66 61 54 47 46 52 49 42 39 29
52 35 28 27 27 28 30 29 33 32 37 38 41 43 43 48 58 59 60 58 55 59 61 58 55 61 66 65 71 73 75 71 68 60 51 52 51 50 48 48 46 36 38
93 62 28 22 29 32 33 36 37 38 39 40 44 47 50 55 59 62 63 65 62 57 60 64 60 63 67 71 71 73 76 59 66 58 57 54 46 45 51 43 49 44 38
43 26 24 14 28 31 32 33 33 32 38 48 54 53 59 62 65 66 69 70 69 66 70 73 67 60 67 70 71 75 66 61 62 59 60 46 46 47 47 39 39 35 38
24 21 77 33 24 26 36 42 45 50 54 57 57 59 65 72 76 76 73 75 75 66 70 70 68 62 73 66 68 75 67 61 62 64 56 50 45 50 46 44 43 40 39
36 46 38 38 41 46 49 51 51 55 57 60 62 65 68 74 78 79 81 78 73 72 72 75 71 69 75 62 69 75 67 61 65 52 48 49 42 37 41 45 45 42 42
47 49 54 59 60 58 55 63 67 68 69 75 79 84 85 85 79 77 82 82 73 74 77 79 75 70 72 65 72 75 69 57 49 47 51 44 38 35 30 28 26 24 36
61 59 58 63 62 64 67 67 67 70 69 69 70 70 77 85 82 82 82 81 76 75 75 84 79 71 67 64 73 82 62 51 47 50 44 37 36 32 30 36 31 32 35
74 75 74 70 73 66 59 63 65 69 78 85 81 81 76 79 89 72 79 74 70 71 79 79 68 69 68 72 73 69 57 55 52 51 48 48 40 38 29 29 39 32 33
83 79 77 74 72 67 66 72 70 85 78 72 70 71 73 76 80 75 67 77 83 83 84 72 68 65 71 72 75 67 60 48 58 49 43 39 35 37 26 27 35 24 28
81 74 73 75 69 65 63 63 72 77 67 64 66 67 69 74 69 78 76 77 79 76 73 67 67 68 74 76 70 69 58 56 51 40 32 24 21 20 24 23 26 28 25
75 72 67 63 61 56 60 66 69 65 63 63 65 60 64 68 71 72 70 72 75 74 70 61 69 80 78 85 89 64 62 58 45 41 33 25 19 24 21 17 16 22 24
72 65 64 69 71 63 61 65 63 59 68 67 60 63 59 66 73 67 69 71 76 70 64 72 80 71 86 98 88 72 65 59 48 40 35 24 31 32 26 21 21 25 26
67 65 63 70 75 64 62 67 69 59 58 61 64 62 57 59 64 66 58 70 60 63 73 81 72 68 82 90 79 63 53 47 43 40 37 33 35 33 33 28 22 18 18
Wind_Direction_850mb
245 254 197 193 190 216 236 218 216 209 211 220 232 230 235 250 258 243 230 228 229 244 251 254 255 246 256 255 267 267 265 253 262 264 271 274 273 287 286 281 271 277 269
232 237 197 192 201 230 234 230 211 217 222 218 223 230 232 234 255 259 241 241 233 242 244 253 273 263 268 270 270 265 259 258 271 267 270 266 277 274 281 279 270 272 263
218 224 228 209 209 224 253 239 235 218 212 221 230 238 234 232 236 252 276 269 255 243 251 263 269 273 282 274 269 265 265 260 264 269 247 242 244 253 304 279 254 264 252
237 211 201 223 222 227 235 242 252 247 228 234 219 219 234 230 236 244 256 271 274 255 249 246 254 255 271 266 261 265 277 270 264 264 260 256 254 271 301 252 254 254 242
209 215 199 216 228 221 225 232 250 242 229 224 230 245 239 242 231 240 230 259 254 263 254 252 253 260 254 267 265 274 273 267 263 261 263 252 251 256 256 271 276 247 259
187 215 199 198 209 234 230 236 240 221 237 230 236 231 244 233 231 222 219 227 238 251 254 252 249 242 252 258 270 264 256 260 255 268 246 244 239 251 246 257 263 260 263
209 182 200 206 209 205 216 242 260 250 264 254 240 226 223 242 245 239 230 234 228 232 251 254 255 258 260 262 261 251 262 245 248 246 252 235 233 241 246 257 262 254 250
208 189 218 202 219 214 231 211 219 266 268 266 256 267 259 254 256 262 260 255 250 245 242 261 259 260 261 258 259 257 257 250 244 247 244 243 233 234 240 243 249 248 249
209 185 206 233 231 242 236 243 234 238 250 263 276 275 267 263 264 259 251 249 251 250 247 242 247 258 254 251 262 263 257 250 249 252 249 241 240 230 240 236 244 250 256
197 207 239 252 253 246 240 234 243 245 236 251 260 273 278 268 270 282 283 273 261 253 255 251 250 260 259 245 251 261 252 250 246 249 247 236 241 225 236 241 246 244 247
208 235 255 268 267 254 247 249 242 248 256 251 247 256 261 263 258 260 268 272 274 268 262 257 252 245 253 255 257 247 246 244 243 245 239 238 238 215 234 240 242 239 217
237 239 237 250 268 268 268 263 264 260 269 266 260 262 262 265 266 265 263 263 263 266 262 266 263 258 247 256 252 244 241 236 237 237 235 236 237 219 227 235 234 236 220
244 242 242 235 253 274 277 268 274 276 276 275 269 275 276 275 270 268 268 266 265 265 268 255 263 255 250 241 248 244 238 234 238 235 230 224 231 227 223 227 223 214 218
286 247 223 231 234 248 258 274 283 280 277 276 272 273 275 275 269 268 272 276 272 270 268 256 257 259 249 246 237 239 240 237 228 231 227 221 226 227 230 231 216 212 229
275 246 216 251 244 249 250 257 258 260 268 277 279 280 280 281 283 282 277 276 276 270 265 266 249 257 248 244 235 233 236 233 216 221 224 224 228 226 232 231 217 219 220
301 311 259 234 271 281 281 281 288 280 270 269 270 282 282 283 283 279 275 274 272 269 268 264 254 256 248 244 238 230 229 213 217 214 215 220 219 217 225 224 215 221 219
274 310 287 299 300 304 296 298 295 290 281 276 274 274 277 276 278 279 273 269 269 269 268 264 261 248 244 245 233 225 221 211 208 213 217 218 221 225 228 213 217 229 233
305 324 323 310 304 302 294 289 287 283 280 277 274 273 275 275 269 270 268 266 264 265 265 261 263 248 240 240 224 219 209 207 209 218 219 216 219 220 218 224 230 232 236
311 306 300 300 298 293 290 284 281 281 278 275 273 272 273 265 266 264 260 263 259 260 260 263 265 247 239 233 218 214 205 202 207 211 216 215 203 209 220 217 227 227 234
305 296 294 290 284 284 282 283 280 277 272 271 268 264 262 261 260 263 256 258 257 256 256 266 262 244 238 222 213 207 195 193 196 206 201 197 206 213 211 210 219 226 240
299 294 288 284 284 280 277 278 274 269 270 271 271 270 263 258 254 267 252 253 253 259 259 264 249 239 226 211 205 206 190 195 192 191 193 197 206 214 225 214 222 227 232
295 292 289 284 283 283 282 279 267 275 280 279 271 266 262 259 259 258 255 253 252 258 259 252 241 228 215 206 202 196 185 191 182 193 203 213 219 233 219 215 219 220 226
288 289 286 284 282 278 275 269 270 281 281 277 269 264 258 254 241 248 254 253 250 251 253 240 223 202 201 191 191 176 178 181 188 197 196 200 209 218 208 215 224 228 224
286 284 281 277 278 276 272 272 275 282 282 272 268 265 262 256 249 254 253 250 248 254 234 223 194 192 188 180 171 173 168 174 169 172 184 196 207 187 187 197 203 190 209
284 282 281 281 279 280 278 276 278 274 275 267 265 260 257 256 254 259 258 246 253 227 217 199 187 192 180 172 176 171 168 174 178 185 191 198 180 175 169 163 143 161 170
286 281 276 278 280 279 275 273 274 273 270 266 262 256 256 253 258 259 246 232 219 199 197 192 185 171 170 175 175 176 179 187 194 192 190 179 179 182 177 169 162 177 181